N6EQ Weather Reports


Display with metric or nautical units.
time (UTC)temp
F
wind
direction
speed
MPH
gust
MPH
rain 1hr
in
rain 24hr
in
rain mn
in
humidity
%
barometer
mb
20260904071503 87 262 0.0 2.0 0.00 0.00 0.00 12 947.3
20260904070113 87 104 0.0 0.0 0.00 0.00 0.00 11 947.3
20260904064608 88 122 1.0 7.0 0.00 0.00 0.00 11 947.1
20260904063100 90 135 5.0 12.0 0.00 0.00 0.00 10 947.1
20260904061557 89 148 0.0 7.0 0.00 0.00 0.00 9 947.0
20260904060057 90 155 0.0 10.0 0.00 0.00 0.00 9 946.9
20260904054557 90 0.0 9.0 0.00 0.00 0.00 10 946.9
20260904053103 91 3.0 11.0 0.00 0.00 0.00 10 946.9
20260904051554 91 143 3.0 9.0 0.00 0.00 0.00 10 947.0
20260904050056 91 148 4.0 11.0 0.00 0.00 0.00 11 947.0
20260904044607 91 134 2.0 7.0 0.00 0.00 0.00 12 947.0
20260904043057 91 151 1.0 9.0 0.00 0.00 0.00 12 947.0
20260904041553 92 137 1.0 9.0 0.00 0.00 0.00 10 946.8
20260904040052 92 137 1.0 6.0 0.00 0.00 0.00 10 946.7
20260904034551 92 153 3.0 10.0 0.00 0.00 0.00 9 946.5
20260904033057 92 136 0.0 6.0 0.00 0.00 0.00 9 946.4
20260904031602 92 133 3.0 7.0 0.00 0.00 0.00 9 946.2
20260904030049 93 181 0.0 8.0 0.00 0.00 0.00 8 946.1
20260904024549 93 156 1.0 7.0 0.00 0.00 0.00 8 946.1
20260904023050 94 157 0.0 9.0 0.00 0.00 0.00 7 946.1
20260904021552 94 153 1.0 10.0 0.00 0.00 0.00 7 946.1
20260904020048 95 149 2.0 19.0 0.00 0.00 0.00 10 946.1
20260904014546 96 159 8.0 14.0 0.00 0.00 0.00 11 946.1
20260904013044 97 135 7.0 17.0 0.00 0.00 0.00 11 946.1
20260904011543 97 188 6.0 20.0 0.00 0.00 0.00 11 946.2
20260904010043 98 165 4.0 17.0 0.00 0.00 0.00 9 946.2
20260904004542 98 155 5.0 22.0 0.00 0.00 0.00 10 946.2
20260904003040 98 203 8.0 21.0 0.00 0.00 0.00 11 946.4
20260904001540 98 183 7.0 20.0 0.00 0.00 0.00 13 946.4
20260904000038 98 213 11.0 22.0 0.00 0.00 0.00 12 946.5
20260903234537 98 143 9.0 18.0 0.00 0.00 0.00 13 946.6
20260903233036 98 133 10.0 24.0 0.00 0.00 0.00 13 946.7
20260903231532 98 12.0 18.0 0.00 0.00 0.00 12 947.2
20260903230032 97 220 8.0 23.0 0.00 0.00 0.00 13 947.3
20260903224535 97 185 14.0 22.0 0.00 0.00 0.00 13 947.4
20260903223029 97 172 11.0 20.0 0.00 0.00 0.00 11 947.7
20260903221542 97 166 13.0 24.0 0.00 0.00 0.00 11 947.9
20260903220024 97 202 14.0 24.0 0.00 0.00 0.00 11 947.9
20260903214524 97 142 16.0 25.0 0.00 0.00 0.00 10 948.2
20260903213023 97 222 13.0 23.0 0.00 0.00 0.00 9 948.3
20260903211520 97 181 12.0 25.0 0.00 0.00 0.00 9 948.4
20260903210019 96 140 15.0 23.0 0.00 0.00 0.00 8 948.6
20260903204518 96 70 11.0 22.0 0.00 0.00 0.00 8 948.7
20260903203020 95 212 6.0 20.0 0.00 0.00 0.00 8 948.9
20260903201513 95 154 8.0 18.0 0.00 0.00 0.00 9 949.0
20260903200017 94 166 11.0 19.0 0.00 0.00 0.00 11 949.2
20260903194522 94 209 9.0 20.0 0.00 0.00 0.00 11 949.5
20260903193007 93 10.0 0.0 0.00 0.00 0.00 12 949.7
20260903191505 93 192 12.0 22.0 0.00 0.00 0.00 10 950.0
20260903190004 92 212 10.0 23.0 0.00 0.00 0.00 12 950.3
20260903184503 92 229 14.0 20.0 0.00 0.00 0.00 11 950.4
20260903183002 92 135 12.0 22.0 0.00 0.00 0.00 12 950.7
20260903181558 91 11.0 21.0 0.00 0.00 0.00 13 950.7
20260903180114 90 170 5.0 17.0 0.00 0.00 0.00 16 950.8
20260903174555 89 212 10.0 18.0 0.00 0.00 0.00 16 950.9
20260903173052 88 173 10.0 16.0 0.00 0.00 0.00 17 951.0
20260903171553 88 198 9.0 17.0 0.00 0.00 0.00 17 951.1
20260903170049 87 216 8.0 20.0 0.00 0.00 0.00 18 951.0
20260903164556 86 224 9.0 15.0 0.00 0.00 0.00 17 951.0
20260903163047 85 240 7.0 14.0 0.00 0.00 0.00 18 951.0
20260903161544 85 240 8.0 14.0 0.00 0.00 0.00 18 951.0
20260903160044 84 192 6.0 12.0 0.00 0.00 0.00 19 950.9
20260903154544 83 210 6.0 10.0 0.00 0.00 0.00 19 950.9
20260903153042 82 193 3.0 7.0 0.00 0.00 0.00 20 951.1
20260903151542 81 236 1.0 5.0 0.00 0.00 0.00 21 951.1
20260903150041 80 222 0.0 0.0 0.00 0.00 0.00 21 951.1
20260903144540 79 223 0.0 0.0 0.00 0.00 0.00 21 951.0
20260903143037 80 216 1.0 3.0 0.00 0.00 0.00 20 950.8
20260903141536 80 94 0.0 0.0 0.00 0.00 0.00 20 950.6
20260903140034 80 126 0.0 0.0 0.00 0.00 0.00 20 950.4
20260903134532 77 187 1.0 3.0 0.00 0.00 0.00 21 950.3
20260903133028 76 104 1.0 5.0 0.00 0.00 0.00 21 950.0
20260903131526 77 112 2.0 4.0 0.00 0.00 0.00 20 949.8
20260903130029 77 113 3.0 5.0 0.00 0.00 0.00 20 949.8
20260903124523 77 112 3.0 4.0 0.00 0.00 0.00 19 949.7
20260903123022 75 95 3.0 7.0 0.00 0.00 0.00 19 949.6
20260903121521 76 88 4.0 6.0 0.00 0.00 0.00 18 949.5
20260903120019 77 108 2.0 4.0 0.00 0.00 0.00 17 949.5
20260903114517 78 121 2.0 5.0 0.00 0.00 0.00 16 949.6
20260903113025 78 101 1.0 3.0 0.00 0.00 0.00 16 949.6
20260903111512 78 169 0.0 5.0 0.00 0.00 0.00 15 949.5
20260903110014 80 139 2.0 4.0 0.00 0.00 0.00 15 949.4
20260903104507 80 129 2.0 4.0 0.00 0.00 0.00 14 949.5
20260903103005 81 138 3.0 5.0 0.00 0.00 0.00 14 949.5
20260903101507 81 128 4.0 6.0 0.00 0.00 0.00 14 949.4
20260903100004 81 114 4.0 6.0 0.00 0.00 0.00 14 949.3
20260903094505 82 113 4.0 6.0 0.00 0.00 0.00 13 949.3
20260903093002 82 120 3.0 6.0 0.00 0.00 0.00 13 949.2
20260903091600 81 97 5.0 8.0 0.00 0.00 0.00 12 949.2
20260903091502 81 85 5.0 8.0 0.00 0.00 0.00 12 949.2
20260903090058 82 113 2.0 5.0 0.00 0.00 0.00 12 949.2
20260903084556 83 109 4.0 5.0 0.00 0.00 0.00 12 949.3
20260903083054 83 2.0 4.0 0.00 0.00 0.00 12 949.4
20260903081553 83 2.0 6.0 0.00 0.00 0.00 12 949.4
20260903080051 84 2.0 3.0 0.00 0.00 0.00 11 949.4
20260903074559 84 140 1.0 4.0 0.00 0.00 0.00 11 949.3
20260903073047 85 305 0.0 3.0 0.00 0.00 0.00 12 949.2